Other Public Products
Issued by NWS Charleston, SC

Current Version | Previous Version | Graphics & Text | Print | Product List | Glossary On
Versions: 1 2 3 4 5 6 7 8 9 10 11 12 13 14 15 16 17 18 19 20 21 22 23 24 25 26 27 28 29 30 31 32 33 34 35 36 37 38 39 40 41 42 43 44 45 46 47 48 49 50
000
FPUS82 KCHS 171927
OPUCHS

TEST...KCHS/KSAV Gateway Observations...TEST
National Weather Service Charleston SC
300 PM EDT THU AUG 17 2017

NOTE: "fair" indicates few or no clouds below 12,000 feet with no
significant weather and/or obstructions to visibility.

SCZ050-WAZ558-NCZ071-TXZ119-213-PAZ071-DCZ001-FLZ074-172-MI076-
NYZ176-178-MAZ016-IL014-TNZ027-NJZ106-GAZ044-MD014-172000-

...Gateway Observations for Charleston International...

CITY           SKY/WX    TMP DP  RH WIND       PRES   REMARKS
Chas Airport   PTSUNNY   88  75  65 SW7       29.97F HX  97
Seattle        PTSUNNY   66  56  70 W5        30.21R
Charlotte      MOSUNNY   92  75  57 SW7       29.99F HX 103
Dallas DFW     CLOUDY    90  79  70 E12       29.99F HX 106
Dallas Love    CLOUDY    87  77  72 SE10      30.00F HX  99
Philladelphia  MOSUNNY   88  63  43 S8        29.98F
Wash National  MOSUNNY   88  78  72 S12       29.95F HX 101
Baltimore      MOSUNNY   84  76  76 S13G18    29.95F HX  93
Miami          MOSUNNY   93  74  53 E14G20    30.05F HX 103
Detroit        RAIN      76  74  93 SW7       29.82S FOG
Newark         PTSUNNY   79  63  57 S8        30.01F
Laguardia      PTSUNNY   81  63  54 S10       30.01F
J F K          PTSUNNY   78  63  59 SE12      30.03F
Boston Logan   MOSUNNY   81  47  30 W12G18    29.99F
Ft. Lauderdale MOSUNNY   90  75  61 E14       30.04F HX 100
Chicago O`Hare PTSUNNY   81  65  58 W22       29.72S
Chicago Midway PTSUNNY   82  66  58 SW23G29   29.74R
Houston Bush   MOSUNNY   95  70  44 SW9       30.03F HX 101
Houston Hobby  MOSUNNY   97  71  42 SW10      30.03F HX 104
Nashville      PTSUNNY   88  71  57 SW12      29.99F HX  94
Atlanta        PTSUNNY   87  73  62 W15       30.06F HX  94

$$

GAZ044-118-TXZ119-213-NCZ071-DCZ001-MDZ014-506-PAZ021-071-NJZ106-
NYZ176-178-MAZ106-OHZ011-021-055-MIZ076-KYZ091-ILZ014-INZ047-
MNZ060-ONZ431-172000-

...Gateway Observations for Savannah International...

CITY           SKY/WX    TMP DP  RH WIND       PRES   REMARKS
Savannah Arpt  PTSUNNY   93  75  55 SW7       30.00F HX 104
Atlanta        PTSUNNY   87  73  62 W15       30.06F HX  94
Charlotte      MOSUNNY   92  75  57 SW7       29.99F HX 103
Dallas DFW     CLOUDY    90  79  70 E12       29.99F HX 106
Houston Bush   MOSUNNY   95  70  44 SW9       30.03F HX 101
Wash National  MOSUNNY   88  78  72 S12       29.95F HX 101
Wash Dulles    PTSUNNY   85  76  74 S7        29.95F HX  94
Baltimore      MOSUNNY   84  76  76 S13G18    29.95F HX  93
Philadelphia   MOSUNNY   88  63  43 S8        29.98F
Newark         PTSUNNY   79  63  57 S8        30.01F
Laguardia      PTSUNNY   81  63  54 S10       30.01F
J F K          PTSUNNY   78  63  59 SE12      30.03F
Boston         MOSUNNY   81  47  30 W12G18    29.99F
Pittsburg      CLOUDY    87  69  54 S12G17    29.92F HX  91
Akron          CLOUDY    87  71  58 SW14G20   29.90F HX  93
Cleveland      CLOUDY    89  72  56 SW14G23   29.85F HX  96
Cincinnati     TSTM      76  76 100 W17G28    29.89R FOG
Columbus       CLOUDY    88  71  57 SW16G22   29.84F HX  94
Detroit        RAIN      76  74  93 SW7       29.82S FOG
Chicago O`Hare PTSUNNY   81  65  58 W22       29.72S
Minneapolis    CLOUDY    70  60  70 NW17      29.70S
Indianapolis   PTSUNNY   87  66  49 SW24      29.84F
Toronto Canada LGT RAIN  70  61  73 E8        29.91F

$$




USA.gov is the U.S. government's official web portal to all federal, state and local government web resources and services.